• In Deutschland
  • Länderverzeichnis
  • Für 7 Tage
  • Wassertemperatur
  • Satellitenkarten
  • Wetterkarte
  • Widgets
  • user-avatar
    Anmelden

    Stündliche Wetter Weingarten

    Heute, 18 Oktober, Mittwoch

    Zeit Temperatur Niederschläge Wind Luftdruck Luftfeuchtigkeit
    00:00 +13°C° 0 mm 1 m/S 724 mmHg 72%
    01:00 +13°C° 0 mm 1 m/S 724 mmHg 68%
    02:00 +12°C° 0 mm 1 m/S 723 mmHg 68%
    03:00 +12°C° 0 mm 1 m/S 723 mmHg 68%
    04:00 +11°C° 0 mm 1 m/S 723 mmHg 67%
    05:00 +11°C° 0 mm 1 m/S 722 mmHg 66%
    06:00 +11°C° 0 mm 1 m/S 722 mmHg 66%
    07:00 +10°C° 0 mm 1 m/S 722 mmHg 65%
    08:00 +12°C° 0 mm 1 m/S 722 mmHg 61%
    09:00 +14°C° 0 mm 1 m/S 722 mmHg 58%
    10:00 +18°C° 0 mm 1 m/S 722 mmHg 55%
    11:00 +19°C° 0 mm 1 m/S 722 mmHg 53%
    12:00 +20°C° 0 mm 1 m/S 722 mmHg 51%
    13:00 +21°C° 0 mm 1 m/S 722 mmHg 49%
    14:00 +21°C° 0 mm 1 m/S 722 mmHg 54%
    15:00 +20°C° 0 mm 1 m/S 721 mmHg 59%
    16:00 +18°C° 0 mm 0 m/S 721 mmHg 64%
    17:00 +18°C° 0 mm 1 m/S 721 mmHg 69%
    18:00 +14°C° 0 mm 1 m/S 721 mmHg 74%
    19:00 +12°C° 0 mm 1 m/S 721 mmHg 79%
    20:00 +12°C° 0 mm 1 m/S 721 mmHg 80%
    21:00 +11°C° 0 mm 1 m/S 721 mmHg 80%
    22:00 +11°C° 0 mm 1 m/S 721 mmHg 80%
    23:00 +11°C° 0 mm 1 m/S 721 mmHg 79%

    Morgen, 19 Oktober, Donnerstag

    Zeit Temperatur Niederschläge Wind Luftdruck Luftfeuchtigkeit
    00:00 +11°C° 0 mm 1 m/S 721 mmHg 79%
    01:00 +10°C° 0 mm 1 m/S 721 mmHg 78%
    02:00 +10°C° 0 mm 1 m/S 721 mmHg 77%
    03:00 +10°C° 0 mm 1 m/S 721 mmHg 76%
    04:00 +10°C° 0 mm 1 m/S 721 mmHg 75%
    05:00 +10°C° 0 mm 1 m/S 721 mmHg 74%
    06:00 +10°C° 0 mm 1 m/S 721 mmHg 73%
    07:00 +9°C° 0 mm 1 m/S 721 mmHg 72%
    08:00 +12°C° 0 mm 1 m/S 721 mmHg 67%
    09:00 +14°C° 0 mm 1 m/S 721 mmHg 61%
    10:00 +16°C° 0 mm 0 m/S 721 mmHg 56%
    11:00 +19°C° 0 mm 1 m/S 721 mmHg 54%
    12:00 +20°C° 0 mm 1 m/S 721 mmHg 51%
    13:00 +22°C° 0 mm 1 m/S 721 mmHg 49%
    14:00 +21°C° 0 mm 1 m/S 721 mmHg 55%
    15:00 +21°C° 0 mm 1 m/S 720 mmHg 61%
    16:00 +20°C° 0 mm 1 m/S 720 mmHg 67%
    17:00 +18°C° 0 mm 1 m/S 720 mmHg 73%
    18:00 +15°C° 0 mm 1 m/S 720 mmHg 79%
    19:00 +13°C° 0 mm 2 m/S 720 mmHg 84%
    20:00 +13°C° 0 mm 1 m/S 721 mmHg 84%
    21:00 +12°C° 0 mm 1 m/S 721 mmHg 83%
    22:00 +12°C° 0 mm 1 m/S 721 mmHg 83%
    23:00 +11°C° 0 mm 1 m/S 721 mmHg 82%

    übermorgen, 20 Oktober, Freitag

    Zeit Temperatur Niederschläge Wind Luftdruck Luftfeuchtigkeit
    00:00 +11°C° 0 mm 1 m/S 721 mmHg 81%
    01:00 +11°C° 0 mm 1 m/S 721 mmHg 80%
    02:00 +11°C° 0 mm 1 m/S 721 mmHg 81%
    03:00 +10°C° 0 mm 1 m/S 721 mmHg 81%
    04:00 +10°C° 0 mm 1 m/S 721 mmHg 81%
    05:00 +10°C° 0 mm 1 m/S 721 mmHg 82%
    06:00 +10°C° 0 mm 1 m/S 721 mmHg 82%
    07:00 +10°C° 0 mm 1 m/S 721 mmHg 83%
    08:00 +12°C° 0 mm 1 m/S 722 mmHg 77%
    09:00 +14°C° 0 mm 1 m/S 722 mmHg 71%
    10:00 +16°C° 0 mm 2 m/S 722 mmHg 65%
    11:00 +17°C° 0 mm 2 m/S 722 mmHg 62%
    12:00 +19°C° 0 mm 2 m/S 722 mmHg 59%
    13:00 +20°C° 0 mm 2 m/S 722 mmHg 56%
    14:00 +20°C° 0 mm 1 m/S 722 mmHg 61%
    15:00 +20°C° 0 mm 1 m/S 723 mmHg 65%
    16:00 +19°C° 0 mm 1 m/S 723 mmHg 69%
    17:00 +18°C° 0,1 mm 1 m/S 723 mmHg 74%
    18:00 +15°C° 0,1 mm 1 m/S 723 mmHg 79%
    19:00 +13°C° 0,1 mm 1 m/S 723 mmHg 84%
    20:00 +13°C° 0 mm 1 m/S 724 mmHg 84%
    21:00 +13°C° 0 mm 1 m/S 724 mmHg 84%
    22:00 +13°C° 0 mm 2 m/S 724 mmHg 84%
    23:00 +12°C° 0 mm 1 m/S 724 mmHg 83%

    21 Oktober, Samstag

    Zeit Temperatur Niederschläge Wind Luftdruck Luftfeuchtigkeit
    00:00 +12°C° 0 mm 1 m/S 724 mmHg 83%
    01:00 +11°C° 0 mm 1 m/S 723 mmHg 83%
    02:00 +11°C° 0 mm 1 m/S 723 mmHg 81%
    03:00 +12°C° 0 mm 1 m/S 723 mmHg 80%
    04:00 +12°C° 0 mm 1 m/S 723 mmHg 79%
    05:00 +12°C° 0 mm 1 m/S 723 mmHg 78%
    06:00 +12°C° 0 mm 2 m/S 723 mmHg 76%
    07:00 +12°C° 0 mm 2 m/S 723 mmHg 75%
    08:00 +14°C° 0 mm 2 m/S 723 mmHg 72%
    09:00 +16°C° 0 mm 2 m/S 723 mmHg 68%
    10:00 +17°C° 0 mm 2 m/S 724 mmHg 65%
    11:00 +18°C° 0 mm 2 m/S 723 mmHg 62%
    12:00 +19°C° 0 mm 2 m/S 723 mmHg 59%
    13:00 +20°C° 0 mm 2 m/S 722 mmHg 57%
    14:00 +20°C° 0 mm 2 m/S 722 mmHg 61%
    15:00 +19°C° 0 mm 2 m/S 722 mmHg 65%
    16:00 +20°C° 0 mm 1 m/S 722 mmHg 69%
    17:00 +17°C° 0 mm 2 m/S 722 mmHg 75%
    18:00 +15°C° 0 mm 2 m/S 723 mmHg 80%
    19:00 +14°C° 0 mm 2 m/S 723 mmHg 86%
    20:00 +13°C° 0,5 mm 2 m/S 723 mmHg 89%
    21:00 +13°C° 0,5 mm 2 m/S 723 mmHg 92%
    22:00 +12°C° 0,5 mm 3 m/S 724 mmHg 95%
    23:00 +11°C° 0,7 mm 3 m/S 724 mmHg 94%

    22 Oktober, Sonntag

    Zeit Temperatur Niederschläge Wind Luftdruck Luftfeuchtigkeit
    00:00 +11°C° 0,7 mm 4 m/S 724 mmHg 94%
    01:00 +10°C° 0,7 mm 4 m/S 724 mmHg 94%
    02:00 +10°C° 0,4 mm 4 m/S 724 mmHg 94%
    03:00 +9°C° 0,4 mm 3 m/S 724 mmHg 94%
    04:00 +9°C° 0,4 mm 3 m/S 723 mmHg 94%
    05:00 +8°C° 0,8 mm 3 m/S 723 mmHg 94%
    06:00 +8°C° 0,8 mm 3 m/S 723 mmHg 94%
    07:00 +8°C° 0,8 mm 3 m/S 723 mmHg 94%
    08:00 +8°C° 0,9 mm 3 m/S 724 mmHg 93%
    09:00 +8°C° 0,9 mm 3 m/S 724 mmHg 91%
    10:00 +8°C° 0,9 mm 3 m/S 724 mmHg 90%
    11:00 +8°C° 0,5 mm 3 m/S 724 mmHg 88%
    12:00 +9°C° 0,5 mm 3 m/S 724 mmHg 86%
    13:00 +9°C° 0,5 mm 2 m/S 724 mmHg 84%
    14:00 +9°C° 0,5 mm 3 m/S 724 mmHg 86%
    15:00 +9°C° 0,5 mm 3 m/S 724 mmHg 87%
    16:00 +8°C° 0,5 mm 3 m/S 724 mmHg 88%
    17:00 +8°C° 0,3 mm 3 m/S 724 mmHg 90%
    18:00 +7°C° 0,3 mm 3 m/S 725 mmHg 92%
    19:00 +5°C° 0,3 mm 3 m/S 725 mmHg 93%
    20:00 +5°C° 0,1 mm 3 m/S 725 mmHg 94%
    21:00 +5°C° 0,1 mm 3 m/S 726 mmHg 94%
    22:00 +4°C° 0,1 mm 3 m/S 726 mmHg 94%
    23:00 +4°C° 0,1 mm 3 m/S 726 mmHg 94%

    23 Oktober, Montag

    Zeit Temperatur Niederschläge Wind Luftdruck Luftfeuchtigkeit
    00:00 +5°C° 0,1 mm 3 m/S 726 mmHg 94%
    01:00 +5°C° 0,1 mm 3 m/S 726 mmHg 94%
    02:00 +5°C° 0,2 mm 3 m/S 726 mmHg 94%
    03:00 +5°C° 0,2 mm 3 m/S 726 mmHg 94%
    04:00 +5°C° 0,2 mm 3 m/S 726 mmHg 94%
    05:00 +5°C° 0,3 mm 3 m/S 726 mmHg 94%
    06:00 +5°C° 0,3 mm 3 m/S 726 mmHg 94%
    07:00 +5°C° 0,3 mm 3 m/S 726 mmHg 94%
    08:00 +5°C° 0,3 mm 3 m/S 726 mmHg 93%
    09:00 +7°C° 0,3 mm 3 m/S 726 mmHg 92%
    10:00 +7°C° 0,3 mm 4 m/S 726 mmHg 92%
    11:00 +7°C° 0,2 mm 4 m/S 726 mmHg 91%
    12:00 +7°C° 0,2 mm 4 m/S 726 mmHg 90%
    13:00 +9°C° 0,2 mm 3 m/S 726 mmHg 89%
    14:00 +9°C° 0,2 mm 3 m/S 726 mmHg 89%
    15:00 +9°C° 0,2 mm 3 m/S 726 mmHg 89%
    16:00 +9°C° 0,2 mm 2 m/S 726 mmHg 90%
    17:00 +9°C° 0,2 mm 2 m/S 726 mmHg 91%
    18:00 +8°C° 0,2 mm 2 m/S 727 mmHg 93%
    19:00 +8°C° 0,2 mm 2 m/S 727 mmHg 95%
    20:00 +8°C° 0,2 mm 2 m/S 727 mmHg 95%
    21:00 +7°C° 0,2 mm 2 m/S 727 mmHg 95%
    22:00 +7°C° 0,2 mm 2 m/S 727 mmHg 96%
    23:00 +7°C° 0,1 mm 2 m/S 727 mmHg 96%
    Mehr zeigen